• In Hungary
  • List of Countries
  • For 7 days
  • Water Temperature
  • Satellite Maps
  • Weather Map
  • News
  • Weather Widgets
  • user-avatar
    Login

    Hourly Weather Chmielne

    Today, 25 September, Tuesday

    Time Temperature Precipitation Wind Pressure Humidity
    00:00 +5°C° 0 mm 6 mps 750 mmHg 75%
    01:00 +5°C° 0 mm 6 mps 751 mmHg 75%
    02:00 +4°C° 0 mm 6 mps 751 mmHg 76%
    03:00 +5°C° 0 mm 5 mps 752 mmHg 76%
    04:00 +5°C° 0 mm 5 mps 752 mmHg 76%
    05:00 +5°C° 0 mm 5 mps 753 mmHg 75%
    06:00 +4°C° 0 mm 6 mps 753 mmHg 74%
    07:00 +5°C° 0 mm 6 mps 754 mmHg 73%
    08:00 +5°C° 0 mm 6 mps 754 mmHg 71%
    09:00 +7°C° 0 mm 6 mps 755 mmHg 66%
    10:00 +9°C° 0 mm 7 mps 755 mmHg 61%
    11:00 +10°C° 0 mm 7 mps 756 mmHg 56%
    12:00 +10°C° 0.2 mm 7 mps 756 mmHg 56%
    13:00 +10°C° 0.2 mm 7 mps 756 mmHg 55%
    14:00 +10°C° 0.2 mm 7 mps 757 mmHg 55%
    15:00 +10°C° 0.1 mm 7 mps 757 mmHg 57%
    16:00 +10°C° 0.1 mm 6 mps 757 mmHg 58%
    17:00 +10°C° 0.1 mm 6 mps 758 mmHg 60%
    18:00 +9°C° 0.1 mm 5 mps 758 mmHg 63%
    19:00 +7°C° 0.1 mm 5 mps 759 mmHg 66%
    20:00 +6°C° 0.1 mm 4 mps 760 mmHg 70%
    21:00 +6°C° 0 mm 4 mps 760 mmHg 71%
    22:00 +5°C° 0 mm 4 mps 761 mmHg 72%
    23:00 +5°C° 0 mm 4 mps 761 mmHg 74%

    Tomorrow, 26 September, Wednesday

    Time Temperature Precipitation Wind Pressure Humidity
    00:00 +5°C° 0 mm 4 mps 762 mmHg 76%
    01:00 +4°C° 0 mm 3 mps 762 mmHg 79%
    02:00 +4°C° 0 mm 3 mps 762 mmHg 81%
    03:00 +3°C° 0 mm 3 mps 763 mmHg 82%
    04:00 +4°C° 0 mm 2 mps 763 mmHg 84%
    05:00 +4°C° 0 mm 2 mps 763 mmHg 85%
    06:00 +4°C° 0 mm 2 mps 763 mmHg 82%
    07:00 +4°C° 0 mm 3 mps 763 mmHg 78%
    08:00 +5°C° 0 mm 3 mps 764 mmHg 75%
    09:00 +7°C° 0 mm 3 mps 763 mmHg 67%
    10:00 +8°C° 0 mm 4 mps 763 mmHg 58%
    11:00 +11°C° 0 mm 4 mps 763 mmHg 50%
    12:00 +12°C° 0 mm 4 mps 762 mmHg 49%
    13:00 +12°C° 0 mm 5 mps 762 mmHg 48%
    14:00 +13°C° 0 mm 5 mps 761 mmHg 47%
    15:00 +13°C° 0 mm 5 mps 761 mmHg 50%
    16:00 +12°C° 0 mm 4 mps 760 mmHg 52%
    17:00 +12°C° 0 mm 4 mps 760 mmHg 55%
    18:00 +11°C° 0.1 mm 4 mps 759 mmHg 59%
    19:00 +11°C° 0.1 mm 4 mps 759 mmHg 63%
    20:00 +9°C° 0.1 mm 5 mps 759 mmHg 67%
    21:00 +9°C° 0 mm 5 mps 758 mmHg 67%
    22:00 +9°C° 0 mm 5 mps 758 mmHg 66%
    23:00 +9°C° 0 mm 6 mps 757 mmHg 66%

    Day after tomorrow, 27 September, Thursday

    Time Temperature Precipitation Wind Pressure Humidity
    00:00 +9°C° 0 mm 6 mps 757 mmHg 63%
    01:00 +10°C° 0 mm 6 mps 756 mmHg 59%
    02:00 +10°C° 0 mm 6 mps 756 mmHg 56%
    03:00 +10°C° 0 mm 7 mps 755 mmHg 55%
    04:00 +10°C° 0 mm 7 mps 755 mmHg 54%
    05:00 +10°C° 0 mm 7 mps 754 mmHg 53%
    06:00 +10°C° 0 mm 7 mps 754 mmHg 55%
    07:00 +11°C° 0 mm 7 mps 754 mmHg 57%
    08:00 +11°C° 0 mm 7 mps 754 mmHg 60%
    09:00 +12°C° 0 mm 7 mps 754 mmHg 60%
    10:00 +14°C° 0 mm 7 mps 754 mmHg 61%
    11:00 +15°C° 0 mm 8 mps 754 mmHg 61%
    12:00 +16°C° 0 mm 7 mps 754 mmHg 62%
    13:00 +17°C° 0 mm 7 mps 754 mmHg 63%
    14:00 +18°C° 0 mm 7 mps 754 mmHg 63%
    15:00 +17°C° 0 mm 6 mps 754 mmHg 65%
    16:00 +17°C° 0 mm 6 mps 754 mmHg 68%
    17:00 +17°C° 0 mm 5 mps 754 mmHg 70%
    18:00 +17°C° 0 mm 4 mps 754 mmHg 73%
    19:00 +17°C° 0 mm 4 mps 754 mmHg 76%
    20:00 +15°C° 0 mm 4 mps 754 mmHg 79%
    21:00 +15°C° 0 mm 4 mps 754 mmHg 82%
    22:00 +14°C° 0 mm 4 mps 754 mmHg 84%
    23:00 +14°C° 0 mm 4 mps 754 mmHg 87%

    28 September, Friday

    Time Temperature Precipitation Wind Pressure Humidity
    00:00 +13°C° 0 mm 4 mps 753 mmHg 89%
    01:00 +13°C° 0 mm 4 mps 753 mmHg 91%
    02:00 +12°C° 0 mm 4 mps 752 mmHg 92%
    03:00 +12°C° 0 mm 4 mps 752 mmHg 92%
    04:00 +12°C° 0 mm 4 mps 751 mmHg 92%
    05:00 +12°C° 0 mm 5 mps 751 mmHg 92%
    06:00 +13°C° 0 mm 5 mps 751 mmHg 89%
    07:00 +13°C° 0 mm 6 mps 751 mmHg 86%
    08:00 +14°C° 0 mm 6 mps 750 mmHg 83%
    09:00 +15°C° 0 mm 6 mps 750 mmHg 77%
    10:00 +17°C° 0 mm 7 mps 750 mmHg 72%
    11:00 +18°C° 0 mm 7 mps 751 mmHg 66%
    12:00 +19°C° 0 mm 6 mps 750 mmHg 68%
    13:00 +17°C° 0 mm 6 mps 750 mmHg 70%
    14:00 +17°C° 0 mm 5 mps 750 mmHg 71%
    15:00 +18°C° 0 mm 4 mps 750 mmHg 70%
    16:00 +17°C° 0 mm 4 mps 750 mmHg 69%
    17:00 +17°C° 0 mm 3 mps 750 mmHg 69%
    18:00 +14°C° 0 mm 3 mps 751 mmHg 69%
    19:00 +14°C° 0 mm 2 mps 751 mmHg 70%
    20:00 +13°C° 0 mm 2 mps 751 mmHg 71%
    21:00 +12°C° 0 mm 2 mps 751 mmHg 71%
    22:00 +12°C° 0 mm 2 mps 751 mmHg 72%
    23:00 +10°C° 0 mm 2 mps 751 mmHg 72%

    29 September, Saturday

    Time Temperature Precipitation Wind Pressure Humidity
    00:00 +10°C° 0 mm 2 mps 751 mmHg 72%
    01:00 +9°C° 0 mm 2 mps 751 mmHg 72%
    02:00 +9°C° 0 mm 2 mps 751 mmHg 73%
    03:00 +9°C° 0.1 mm 2 mps 751 mmHg 74%
    04:00 +10°C° 0.1 mm 1 mps 751 mmHg 75%
    05:00 +10°C° 0.1 mm 1 mps 751 mmHg 76%
    06:00 +9°C° 0.1 mm 2 mps 752 mmHg 78%
    07:00 +9°C° 0.1 mm 2 mps 752 mmHg 79%
    08:00 +9°C° 0.1 mm 2 mps 752 mmHg 81%
    09:00 +10°C° 0 mm 3 mps 753 mmHg 74%
    10:00 +11°C° 0 mm 3 mps 753 mmHg 67%
    11:00 +13°C° 0 mm 3 mps 754 mmHg 60%
    12:00 +13°C° 0 mm 3 mps 753 mmHg 55%
    13:00 +14°C° 0 mm 4 mps 753 mmHg 50%
    14:00 +14°C° 0 mm 4 mps 753 mmHg 46%
    15:00 +14°C° 0 mm 3 mps 754 mmHg 47%
    16:00 +13°C° 0 mm 3 mps 754 mmHg 49%
    17:00 +13°C° 0 mm 3 mps 754 mmHg 51%
    18:00 +12°C° 0 mm 3 mps 754 mmHg 55%
    19:00 +10°C° 0 mm 2 mps 755 mmHg 59%
    20:00 +9°C° 0 mm 2 mps 755 mmHg 63%
    21:00 +8°C° 0 mm 2 mps 755 mmHg 65%
    22:00 +8°C° 0 mm 2 mps 755 mmHg 67%
    23:00 +7°C° 0 mm 2 mps 756 mmHg 70%

    30 September, Sunday

    Time Temperature Precipitation Wind Pressure Humidity
    00:00 +8°C° 0 mm 1 mps 756 mmHg 71%
    01:00 +7°C° 0 mm 1 mps 755 mmHg 72%
    02:00 +7°C° 0 mm 1 mps 755 mmHg 73%
    03:00 +6°C° 0 mm 1 mps 755 mmHg 75%
    04:00 +6°C° 0 mm 1 mps 755 mmHg 77%
    05:00 +6°C° 0 mm 1 mps 755 mmHg 79%
    06:00 +6°C° 0 mm 1 mps 755 mmHg 78%
    07:00 +7°C° 0 mm 1 mps 755 mmHg 77%
    08:00 +7°C° 0 mm 1 mps 755 mmHg 76%
    09:00 +8°C° 0 mm 2 mps 754 mmHg 68%
    10:00 +10°C° 0 mm 2 mps 754 mmHg 61%
    11:00 +13°C° 0 mm 2 mps 754 mmHg 54%
    12:00 +14°C° 0 mm 2 mps 753 mmHg 50%
    13:00 +14°C° 0 mm 2 mps 752 mmHg 46%
    14:00 +15°C° 0 mm 2 mps 752 mmHg 42%
    15:00 +15°C° 0 mm 2 mps 751 mmHg 45%
    16:00 +14°C° 0 mm 2 mps 751 mmHg 47%
    17:00 +14°C° 0 mm 1 mps 750 mmHg 49%
    18:00 +13°C° 0 mm 2 mps 750 mmHg 52%
    19:00 +12°C° 0 mm 2 mps 750 mmHg 55%
    20:00 +9°C° 0 mm 2 mps 750 mmHg 57%
    21:00 +9°C° 0 mm 2 mps 749 mmHg 60%
    22:00 +9°C° 0 mm 2 mps 749 mmHg 63%
    23:00 +8°C° 0 mm 2 mps 749 mmHg 66%
    Show more